Location: Monteux
(44.0348°N, 4.9972°E)
Time: 17:58:49
(UTC+00:00)

Meteor 1-10 Rocket - Pass Details

Date: 30 November 2020
Orbit: 836 x 910 km, 81.3° (Epoch: 17 January)

Event Time Altitude Azimuth Distance (km) Brightness Sun altitude
Rises 18:21:55 0° 189° (S) 3,432 7.6 -24.3°
Reaches altitude 10° 18:24:21 10° 190° (S) 2,489 6.8 -24.7°
Maximum altitude 18:30:01 86° 280° (W) 857 4.1 -25.7°
Enters shadow 18:32:36 34° 7° (N) 1,375 5.1 -26.2°
